WA6MHA-11 Weather Reports


time (UTC)temp
C
wind
direction
speed
KPH
gust
KPH
rain 1hr
cm
rain 24hr
cm
rain mn
cm
humidity
%
barometer
mb
20260906021134 29 193 1.6 4.8 0.00 0.00 0.00 21 1013.6
20260906020733 29 135 3.2 3.2 0.00 0.00 0.00 21 1013.7
20260906015931 30 137 1.6 4.8 0.00 0.00 0.00 20 1013.6
20260906015530 30 135 1.6 4.8 0.00 0.00 0.00 20 1013.6
20260906014731 30 135 1.6 3.2 0.00 0.00 0.00 19 1013.5
20260906014325 31 186 4.8 4.8 0.00 0.00 0.00 19 1013.5
20260906013924 31 166 4.8 8.0 0.00 0.00 0.00 19 1013.5
20260906011918 32 198 6.4 6.4 0.00 0.00 0.00 18 1013.6
20260906011517 32 177 6.4 6.4 0.00 0.00 0.00 18 1013.7
20260906011115 32 189 4.8 8.0 0.00 0.00 0.00 17 1013.6
20260906010714 32 175 3.2 4.8 0.00 0.00 0.00 17 1013.5
20260906005915 32 193 4.8 12.9 0.00 0.00 0.00 18 1013.6
20260906004306 33 182 6.4 11.3 0.00 0.00 0.00 16 1013.6
20260906003904 33 189 9.7 9.7 0.00 0.00 0.00 16 1013.6
20260906002300 33 193 9.7 11.3 0.00 0.00 0.00 16 1013.5
20260906001859 33 184 8.0 9.7 0.00 0.00 0.00 17 1013.5
20260906001457 33 185 3.2 9.7 0.00 0.00 0.00 17 1013.5
20260906001056 33 142 6.4 14.5 0.00 0.00 0.00 17 1013.6
20260906000655 33 160 4.8 19.3 0.00 0.00 0.00 15 1013.6
20260906000256 35 184 9.7 9.7 0.00 0.00 0.00 17 1013.6
20260905234648 34 175 6.4 14.5 0.00 0.00 0.00 17 1013.7
20260905234247 35 198 4.8 8.0 0.00 0.00 0.00 17 1013.6
20260905233846 35 184 11.3 14.5 0.00 0.00 0.00 17 1013.6
20260905233445 35 204 6.4 16.1 0.00 0.00 0.00 16 1013.5
20260905233043 36 180 9.7 11.3 0.00 0.00 0.00 16 1013.6
20260905232642 36 187 9.7 12.9 0.00 0.00 0.00 16 1013.6
20260905232240 36 186 9.7 19.3 0.00 0.00 0.00 16 1013.5
20260905231839 36 198 14.5 20.9 0.00 0.00 0.00 16 1013.6
20260905231037 36 171 11.3 16.1 0.00 0.00 0.00 16 1013.7
20260905230636 36 182 12.9 14.5 0.00 0.00 0.00 16 1013.7
20260905230234 36 216 12.9 16.1 0.00 0.00 0.00 16 1013.7
20260905225834 36 186 9.7 24.1 0.00 0.00 0.00 15 1013.8
20260905225432 36 190 11.3 19.3 0.00 0.00 0.00 15 1013.8
20260905225030 36 237 3.2 17.7 0.00 0.00 0.00 15 1013.7
20260905224629 36 81 3.2 14.5 0.00 0.00 0.00 14 1013.8
20260905224229 36 234 9.7 25.7 0.00 0.00 0.00 15 1013.9
20260905223826 36 208 9.7 16.1 0.00 0.00 0.00 15 1013.9
20260905223425 36 279 3.2 12.9 0.00 0.00 0.00 14 1013.9
20260905223055 36 182 17.7 20.9 0.00 0.00 0.00 16 1014.0
20260905223024 36 182 17.7 20.9 0.00 0.00 0.00 16 1014.0
20260905221820 37 184 9.7 14.5 0.00 0.00 0.00 15 1014.1
20260905221418 36 189 8.0 12.9 0.00 0.00 0.00 16 1014.0
20260905221017 37 217 6.4 11.3 0.00 0.00 0.00 15 1014.0
20260905220616 36 135 4.8 12.9 0.00 0.00 0.00 15 1014.1
20260905220215 36 174 9.7 17.7 0.00 0.00 0.00 16 1014.1
20260905215814 36 146 4.8 11.3 0.00 0.00 0.00 16 1014.2
20260905215412 37 137 6.4 11.3 0.00 0.00 0.00 15 1014.3
20260905215011 36 240 4.8 12.9 0.00 0.00 0.00 15 1014.2
20260905212603 36 182 12.9 17.7 0.00 0.00 0.00 16 1014.5
20260905212202 36 185 9.7 19.3 0.00 0.00 0.00 16 1014.6
20260905211801 36 199 12.9 20.9 0.00 0.00 0.00 15 1014.5
20260905211359 36 99 3.2 14.5 0.00 0.00 0.00 16 1014.6
20260905210959 36 185 14.5 14.5 0.00 0.00 0.00 16 1014.6
20260905210557 36 56 4.8 11.3 0.00 0.00 0.00 16 1014.6
20260905210157 36 189 9.7 19.3 0.00 0.00 0.00 17 1014.6
20260905205754 36 202 11.3 19.3 0.00 0.00 0.00 16 1014.6
20260905205353 36 292 4.8 9.7 0.00 0.00 0.00 16 1014.6
20260905204952 36 244 11.3 14.5 0.00 0.00 0.00 17 1014.8
20260905203747 36 135 1.6 14.5 0.00 0.00 0.00 18 1014.9
20260905202947 36 288 3.2 12.9 0.00 0.00 0.00 18 1015.0
20260905202544 36 182 9.7 11.3 0.00 0.00 0.00 18 1015.0
20260905202143 36 185 4.8 8.0 0.00 0.00 0.00 19 1015.0
20260905201741 35 198 4.8 12.9 0.00 0.00 0.00 19 1015.0
20260905201343 35 159 6.4 9.7 0.00 0.00 0.00 19 1015.0
20260905200941 35 162 4.8 14.5 0.00 0.00 0.00 19 1015.1
20260905200537 33 148 4.8 12.9 0.00 0.00 0.00 19 1015.1
20260905195735 33 130 9.7 12.9 0.00 0.00 0.00 20 1015.2
20260905195334 33 92 9.7 20.9 0.00 0.00 0.00 20 1015.3
20260905194933 33 90 12.9 14.5 0.00 0.00 0.00 20 1015.3
20260905194531 34 150 9.7 12.9 0.00 0.00 0.00 20 1015.5
20260905194130 33 137 6.4 17.7 0.00 0.00 0.00 20 1015.4
20260905193729 33 96 11.3 16.1 0.00 0.00 0.00 20 1015.3
20260905193327 33 92 9.7 16.1 0.00 0.00 0.00 20 1015.4
20260905192123 33 151 3.2 11.3 0.00 0.00 0.00 21 1015.6
20260905191722 33 36 0.0 6.4 0.00 0.00 0.00 21 1015.7
20260905191321 33 130 3.2 11.3 0.00 0.00 0.00 21 1015.7
20260905190920 32 94 8.0 16.1 0.00 0.00 0.00 21 1015.8
20260905190116 33 198 8.0 12.9 0.00 0.00 0.00 22 1015.8
20260905185715 33 191 4.8 8.0 0.00 0.00 0.00 21 1015.9
20260905183709 33 139 9.7 11.3 0.00 0.00 0.00 23 1016.1
20260905183308 32 159 0.0 6.4 0.00 0.00 0.00 23 1016.1
20260905182907 31 85 6.4 14.5 0.00 0.00 0.00 24 1016.1
20260905182104 32 155 1.6 12.9 0.00 0.00 0.00 25 1016.1
20260905181301 33 139 8.0 12.9 0.00 0.00 0.00 26 1016.2
20260905180900 32 173 8.0 11.3 0.00 0.00 0.00 27 1016.2
20260905180459 31 121 4.8 8.0 0.00 0.00 0.00 27 1016.2
20260905175256 32 108 3.2 11.3 0.00 0.00 0.00 29 1016.2
20260905174853 32 25 0.0 6.4 0.00 0.00 0.00 29 1016.1
20260905174452 32 290 1.6 8.0 0.00 0.00 0.00 30 1016.1
20260905174051 31 123 0.0 8.0 0.00 0.00 0.00 30 1016.1
20260905173650 30 125 6.4 12.9 0.00 0.00 0.00 31 1016.0
20260905173249 30 292 0.0 3.2 0.00 0.00 0.00 31 1016.0
20260905172847 29 70 3.2 14.5 0.00 0.00 0.00 32 1016.0
20260905172045 29 56 6.4 9.7 0.00 0.00 0.00 33 1016.1
20260905171243 30 150 1.6 8.0 0.00 0.00 0.00 34 1016.0
20260905170841 30 123 3.2 4.8 0.00 0.00 0.00 35 1016.0
20260905170441 30 186 4.8 4.8 0.00 0.00 0.00 36 1016.0
20260905170038 29 33 0.0 4.8 0.00 0.00 0.00 36 1015.9
20260905165637 29 290 3.2 3.2 0.00 0.00 0.00 37 1016.0
20260905165236 28 184 0.0 3.2 0.00 0.00 0.00 38 1015.9
20260905164834 29 322 3.2 3.2 0.00 0.00 0.00 38 1016.0
20260905164434 28 128 1.6 4.8 0.00 0.00 0.00 39 1016.0
20260905164032 28 121 1.6 4.8 0.00 0.00 0.00 40 1016.0
20260905163630 28 319 1.6 3.2 0.00 0.00 0.00 41 1016.0
20260905163229 28 308 0.0 3.2 0.00 0.00 0.00 42 1016.1
20260905162828 28 274 0.0 1.6 0.00 0.00 0.00 43 1016.1
20260905162427 27 180 1.6 1.6 0.00 0.00 0.00 44 1016.0
20260905155618 23 38 1.6 4.8 0.00 0.00 0.00 47 1016.0
20260905154815 23 326 1.6 4.8 0.00 0.00 0.00 48 1015.9
20260905154414 23 350 4.8 4.8 0.00 0.00 0.00 48 1015.9
20260905153210 23 299 0.0 3.2 0.00 0.00 0.00 48 1015.9
20260905152809 23 330 1.6 1.6 0.00 0.00 0.00 49 1015.9
20260905152407 22 270 1.6 1.6 0.00 0.00 0.00 49 1015.9
20260905151605 21 283 0.0 1.6 0.00 0.00 0.00 50 1015.9
20260905150803 20 31 1.6 1.6 0.00 0.00 0.00 50 1015.9
20260905150401 20 285 0.0 1.6 0.00 0.00 0.00 51 1015.8
20260905150000 19 306 0.0 1.6 0.00 0.00 0.00 51 1015.8
20260905145558 18 324 1.6 3.2 0.00 0.00 0.00 51 1015.7
20260905145157 18 342 0.0 1.6 0.00 0.00 0.00 51 1015.6
20260905144355 17 353 0.0 0.0 0.00 0.00 0.00 52 1015.7
20260905143954 17 328 0.0 0.0 0.00 0.00 0.00 52 1015.5
20260905143552 16 38 0.0 0.0 0.00 0.00 0.00 52 1015.5
20260905143150 16 326 0.0 0.0 0.00 0.00 0.00 53 1015.5
20260905142749 16 301 0.0 0.0 0.00 0.00 0.00 53 1015.4
20260905142348 15 334 0.0 1.6 0.00 0.00 0.00 53 1015.4
20260905141546 15 42 0.0 0.0 0.00 0.00 0.00 53 1015.5
20260905141144 14 42 0.0 0.0 0.00 0.00 0.00 53 1015.4
20260905140743 14 42 0.0 0.0 0.00 0.00 0.00 53 1015.3
20260905135940 13 135 0.0 0.0 0.00 0.00 0.00 53 1015.3
20260905135138 13 96 0.0 0.0 0.00 0.00 0.00 53 1015.2
20260905134335 13 330 0.0 0.0 0.00 0.00 0.00 53 1015.0
20260905133935 13 274 0.0 0.0 0.00 0.00 0.00 53 1015.1
20260905133533 13 274 0.0 0.0 0.00 0.00 0.00 53 1015.0
20260905133132 13 283 0.0 1.6 0.00 0.00 0.00 53 1014.9
20260905132734 13 297 1.6 1.6 0.00 0.00 0.00 53 1014.9
20260905132328 13 274 0.0 0.0 0.00 0.00 0.00 53 1014.9
20260905131927 13 315 0.0 0.0 0.00 0.00 0.00 53 1014.9
20260905131526 13 310 0.0 0.0 0.00 0.00 0.00 53 1014.8
20260905131125 13 299 0.0 0.0 0.00 0.00 0.00 53 1014.7
20260905130724 13 299 0.0 1.6 0.00 0.00 0.00 53 1014.7
20260905130322 13 310 0.0 0.0 0.00 0.00 0.00 53 1014.8
20260905125921 13 274 0.0 0.0 0.00 0.00 0.00 53 1014.7
20260905125520 13 292 0.0 0.0 0.00 0.00 0.00 53 1014.9
20260905124717 13 274 1.6 1.6 0.00 0.00 0.00 52 1014.8
20260905124317 13 301 0.0 0.0 0.00 0.00 0.00 52 1014.8
20260905123915 13 321 0.0 0.0 0.00 0.00 0.00 52 1014.8
20260905123513 13 326 0.0 0.0 0.00 0.00 0.00 52 1014.7
20260905122716 13 283 0.0 0.0 0.00 0.00 0.00 52 1014.7
20260905121909 13 279 0.0 0.0 0.00 0.00 0.00 52 1014.8
20260905121508 13 274 0.0 0.0 0.00 0.00 0.00 52 1014.9
20260905121106 13 294 0.0 0.0 0.00 0.00 0.00 52 1014.8
20260905120303 13 274 0.0 0.0 0.00 0.00 0.00 52 1014.8
20260905115902 13 279 0.0 0.0 0.00 0.00 0.00 52 1014.8
20260905115501 13 225 0.0 0.0 0.00 0.00 0.00 52 1014.7
20260905115100 13 237 0.0 0.0 0.00 0.00 0.00 52 1014.8
20260905114658 14 227 0.0 0.0 0.00 0.00 0.00 52 1014.8
20260905114257 14 229 0.0 0.0 0.00 0.00 0.00 52 1014.8
20260905113855 14 236 0.0 1.6 0.00 0.00 0.00 52 1014.7
20260905112653 14 274 1.6 1.6 0.00 0.00 0.00 51 1014.8
20260905112250 14 279 0.0 1.6 0.00 0.00 0.00 51 1014.9
20260905111849 14 279 0.0 1.6 0.00 0.00 0.00 51 1014.8
20260905111448 14 270 0.0 1.6 0.00 0.00 0.00 51 1014.9
20260905110244 14 299 0.0 0.0 0.00 0.00 0.00 51 1014.9
20260905105842 14 290 0.0 0.0 0.00 0.00 0.00 51 1014.9
20260905105444 14 339 0.0 0.0 0.00 0.00 0.00 51 1014.9
20260905105041 14 231 0.0 0.0 0.00 0.00 0.00 51 7014.9
20260905104639 14 303 0.0 0.0 0.00 0.00 0.00 50 1014.9
20260905104238 14 303 0.0 0.0 0.00 0.00 0.00 50 1015.0
20260905103837 14 297 0.0 0.0 0.00 0.00 0.00 50 1015.0
20260905103435 14 279 0.0 0.0 0.00 0.00 0.00 50 1015.0
20260905103033 14 283 0.0 0.0 0.00 0.00 0.00 50 1015.0
20260905102231 14 40 0.0 1.6 0.00 0.00 0.00 50 1015.0
20260905101430 14 283 0.0 0.0 0.00 0.00 0.00 50 1015.0
20260905101027 14 274 0.0 0.0 0.00 0.00 0.00 50 1015.0
20260905100627 14 307 0.0 0.0 0.00 0.00 0.00 50 1.0
20260905100225 14 283 0.0 0.0 0.00 0.00 0.00 50 1015.0
20260905095824 14 290 0.0 0.0 0.00 0.00 0.00 50 1015.0
20260905095422 14 283 0.0 0.0 0.00 0.00 0.00 50 1015.1
20260905095022 14 279 0.0 1.6 0.00 0.00 0.00 50 1015.0
20260905094620 14 279 0.0 0.0 0.00 0.00 0.00 49 1015.0
20260905094218 15 279 0.0 0.0 0.00 0.00 0.00 49 1014.9
20260905093015 15 274 0.0 0.0 0.00 0.00 0.00 49 1015.0
20260905092613 15 283 0.0 0.0 0.00 0.00 0.00 49 1015.0
20260905092211 15 283 0.0 0.0 0.00 0.00 0.00 49 1015.0
20260905091810 15 186 0.0 0.0 0.00 0.00 0.00 49 1015.0
20260905091409 15 279 0.0 0.0 0.00 0.00 0.00 49 1015.1
20260905091013 15 274 0.0 0.0 0.00 0.00 0.00 49 1015.1
20260905085804 15 274 0.0 0.0 0.00 0.00 0.00 48 1015.1
20260905085403 15 283 0.0 0.0 0.00 0.00 0.00 48 1015.2
20260905084600 15 303 0.0 0.0 0.00 0.00 0.00 48 1015.2
20260905084200 15 303 0.0 0.0 0.00 0.00 0.00 48 1015.2
20260905083758 15 303 0.0 0.0 0.00 0.00 0.00 48 1015.2
20260905083356 15 303 0.0 0.0 0.00 0.00 0.00 48 1015.2
20260905082955 15 279 0.0 0.0 0.00 0.00 0.00 48 1015.3
20260905082555 16 333 0.0 0.0 0.00 0.00 0.00 48 1015.2
20260905082155 16 337 0.0 0.0 0.00 0.00 0.00 47 1015.2
20260905081752 16 260 0.0 0.0 0.00 0.00 0.00 47 1015.3
20260905081350 16 234 0.0 0.0 0.00 0.00 0.00 47 1015.3
20260905080949 -17 141 0.0 0.0 0.00 0.00 0.00 47
20260905080547 16 283 0.0 1.6 0.00 0.00 0.00 47 1015.2
20260905080305 16 270 0.0 1.6 0.00 0.00 0.00 47 1015.2
20260905080146 16 270 0.0 1.6 0.00 0.00 0.00 47 1015.2
20260905075745 16 279 1.6 1.6 0.00 0.00 0.00 47 1015.2
20260905074943 16 279 1.6 1.6 0.00 0.00 0.00 47 1015.2
20260905074541 16 279 0.0 0.0 0.00 0.00 0.00 47 1015.2
20260905074140 16 346 0.0 0.0 0.00 0.00 0.00 46 1015.2
20260905073738 16 335 0.0 0.0 0.00 0.00 0.00 46 1015.2
20260905073338 16 339 0.0 0.0 0.00 0.00 0.00 46 1015.2
20260905072936 16 292 0.0 0.0 0.00 0.00 0.00 46 1015.2
20260905072535 16 274 0.0 1.6 0.00 0.00 0.00 46 1015.2
20260905072134 16 288 1.6 1.6 0.00 0.00 0.00 46 1015.2
20260905071733 16 310 0.0 0.0 0.00 0.00 0.00 46 1015.2
20260905071331 17 137 0.0 1.6 0.00 0.00 0.00 46 1015.2
20260905070930 17 137 0.0 0.0 0.00 0.00 0.00 46 1015.2
20260905070529 17 270 0.0 1.6 0.00 0.00 0.00 45 1015.2
20260905070127 17 227 0.0 0.0 0.00 0.00 0.00 45 1015.1
20260905065325 17 326 0.0 0.0 0.00 0.00 0.00 45 1015.1
20260905064121 17 137 0.0 0.0 0.00 0.00 0.00 45 1015.1
20260905062910 18 239 0.0 1.6 0.00 0.00 0.00 44 1014.9
20260905062509 18 221 1.6 1.6 0.00 0.00 0.00 44 1014.9
20260905062108 18 236 0.0 1.6 0.00 0.00 0.00 44 1015.0
20260905061306 18 279 0.0 1.6 0.00 0.00 0.00 44 1015.0
20260905060904 18 235 0.0 0.0 0.00 0.00 0.00 44 1015.0
20260905055702 18 321 0.0 0.0 0.00 0.00 0.00 43 1015.0
20260905055259 18 279 0.0 0.0 0.00 0.00 0.00 43 1015.0
20260905054901 18 339 0.0 0.0 0.00 0.00 0.00 43 1015.0
20260905054457 18 324 0.0 0.0 0.00 0.00 0.00 43 1014.9
20260905053654 18 324 0.0 0.0 0.00 0.00 0.00 43 1014.9
20260905053253 18 324 0.0 0.0 0.00 0.00 0.00 43 1014.9
20260905052451 19 330 0.0 0.0 0.00 0.00 0.00 42 1014.9
20260905052049 19 333 0.0 0.0 0.00 0.00 0.00 42 1015.0
20260905051647 19 283 0.0 0.0 0.00 0.00 0.00 42 1014.9
20260905051246 19 243 0.0 1.6 0.00 0.00 0.00 42 1014.9
20260905050845 19 279 1.6 3.2 0.00 0.00 0.00 42 1015.0
20260905050444 19 283 0.0 1.6 0.00 0.00 0.00 42 1014.9
20260905050043 19 279 1.6 3.2 0.00 0.00 0.00 42 1014.9
20260905045240 20 279 4.8 4.8 0.00 0.00 0.00 42 1014.9
20260905044839 20 255 0.0 3.2 0.00 0.00 0.00 41 1014.8
20260905044036 20 274 3.2 4.8 0.00 0.00 0.00 41 1014.8
20260905043635 20 283 3.2 4.8 0.00 0.00 0.00 41 1014.6
20260905043234 20 292 1.6 4.8 0.00 0.00 0.00 41 1014.7
20260905042832 20 270 4.8 4.8 0.00 0.00 0.00 40 1014.6
20260905042431 20 288 1.6 4.8 0.00 0.00 0.00 40 1014.5
20260905042030 20 279 1.6 4.8 0.00 0.00 0.00 40 1014.5
20260905041629 20 274 3.2 4.8 0.00 0.00 0.00 39 1014.5
20260905041227 20 283 3.2 4.8 0.00 0.00 0.00 39 1014.5
20260905040418 20 270 3.2 3.2 0.00 0.00 0.00 38 1014.4
20260905035215 20 274 1.6 3.2 0.00 0.00 0.00 38 1014.3
20260905034814 20 189 0.0 1.6 0.00 0.00 0.00 37 1014.2
20260905034412 20 324 0.0 3.2 0.00 0.00 0.00 37 1014.1
20260905034014 20 301 1.6 1.6 0.00 0.00 0.00 37 1014.1
20260905033610 21 310 0.0 1.6 0.00 0.00 0.00 37 1014.0
20260905033209 21 274 1.6 1.6 0.00 0.00 0.00 36 1014.0
20260905032406 21 292 0.0 0.0 0.00 0.00 0.00 36 1013.9
20260905031603 21 186 0.0 0.0 0.00 0.00 0.00 35 1013.8
20260905030801 22 328 0.0 0.0 0.00 0.00 0.00 35 1013.8
20260905025958 22 274 0.0 0.0 0.00 0.00 0.00 34 1013.7
20260905025155 22 283 0.0 0.0 0.00 0.00 0.00 33 1013.7
20260905024754 23 312 0.0 0.0 0.00 0.00 0.00 33 1013.6
20260905024354 23 339 1.6 1.6 0.00 0.00 0.00 33 1013.6
20260905023551 23 283 0.0 0.0 0.00 0.00 0.00 32 1013.6
20260905023149 24 227 0.0 1.6 0.00 0.00 0.00 31 1013.6
20260905022748 24 186 1.6 3.2 0.00 0.00 0.00 31 1013.5
20260905022347 24 200 0.0 3.2 0.00 0.00 0.00 31 1013.6
20260905021945 24 279 1.6 3.2 0.00 0.00 0.00 30 1013.5
20260905021544 24 215 1.6 6.4 0.00 0.00 0.00 30 1013.5